TimeAKDT,TemperatureF,Dew PointF,Humidity,Sea Level PressureIn,VisibilityMPH,Wind Direction,Wind SpeedMPH,Gust SpeedMPH,PrecipitationIn,Events,Conditions,WindDirDegrees,DateUTC
12:52 AM,30.0,25.0,82,30.39,10.0,Calm,Calm,-,N/A,,Clear,0,2012-10-09 08:52:00
1:52 AM,33.1,27.0,78,30.40,10.0,Calm,Calm,-,N/A,,Clear,0,2012-10-09 09:52:00
2:52 AM,32.0,28.0,85,30.40,10.0,Calm,Calm,-,N/A,,Clear,0,2012-10-09 10:52:00
3:52 AM,30.9,28.0,89,30.41,10.0,Calm,Calm,-,N/A,,Clear,0,2012-10-09 11:52:00
4:52 AM,27.0,24.1,89,30.42,10.0,Calm,Calm,-,N/A,,Clear,0,2012-10-09 12:52:00
5:52 AM,26.1,23.0,88,30.43,10.0,Calm,Calm,-,N/A,,Clear,0,2012-10-09 13:52:00
6:52 AM,24.1,21.9,91,30.43,10.0,Calm,Calm,-,N/A,,Clear,0,2012-10-09 14:52:00
7:52 AM,23.0,21.0,92,30.45,10.0,Calm,Calm,-,N/A,,Clear,0,2012-10-09 15:52:00
8:52 AM,23.0,21.0,92,30.45,10.0,Calm,Calm,-,N/A,,Partly Cloudy,0,2012-10-09 16:52:00
9:52 AM,24.1,21.0,88,30.46,10.0,Calm,Calm,-,N/A,,Partly Cloudy,0,2012-10-09 17:52:00
10:52 AM,34.0,26.1,73,30.47,10.0,Calm,Calm,-,N/A,,Partly Cloudy,0,2012-10-09 18:52:00
11:52 AM,37.0,23.0,57,30.47,10.0,SE,8.1,-,N/A,,Clear,130,2012-10-09 19:52:00
12:52 PM,37.0,21.9,54,30.47,10.0,SE,9.2,-,N/A,,Clear,130,2012-10-09 20:52:00
1:52 PM,39.0,21.9,50,30.47,10.0,ESE,9.2,-,N/A,,Clear,120,2012-10-09 21:52:00
2:52 PM,39.0,25.0,57,30.47,10.0,SSE,3.5,-,N/A,,Partly Cloudy,150,2012-10-09 22:52:00
3:52 PM,39.9,27.0,60,30.46,10.0,SSE,9.2,-,N/A,,Partly Cloudy,150,2012-10-09 23:52:00
4:52 PM,39.9,25.0,55,30.45,10.0,East,10.4,-,N/A,,Partly Cloudy,80,2012-10-10 00:52:00
5:52 PM,37.9,24.1,57,30.45,10.0,East,11.5,-,N/A,,Scattered Clouds,80,2012-10-10 01:52:00
6:52 PM,35.1,24.1,64,30.46,10.0,ESE,10.4,-,N/A,,Scattered Clouds,110,2012-10-10 02:52:00
7:52 PM,33.1,23.0,66,30.46,10.0,East,4.6,-,N/A,,Scattered Clouds,100,2012-10-10 03:52:00
8:52 PM,28.0,21.9,78,30.46,10.0,NE,3.5,-,N/A,,Scattered Clouds,40,2012-10-10 04:52:00
9:52 PM,28.0,19.9,72,30.45,10.0,North,4.6,-,N/A,,Clear,360,2012-10-10 05:52:00
10:52 PM,28.9,19.9,69,30.45,10.0,North,4.6,-,N/A,,Clear,350,2012-10-10 06:52:00
11:52 PM,30.0,19.9,66,30.45,10.0,NW,4.6,-,N/A,,Clear,320,2012-10-10 07:52:00